Temp
-7 -7 -7 -7 -7 -7 -8 -8 -7 -7 -9 -8 -8 -8 -8 -6 -7 -7 -7 -7 -7 -6 -6 -6 -6 -7 -7 -7 -7 -6 -6 -6 -6 -6 -5 -5 -5 -6 -6 -6 -6 -6 -6 -7 -7 -7 -7 -7 -7
-7 -8 -7 -8 -7 -8 -7 -7 -6 -7 -7 -7 -8 -8 -7 -8 -7 -8 -7 -7 -6 -6 -6 -7 -7 -7 -7 -7 -6 -6 -6 -6 -6 -6 -6 -6 -6 -6 -6 -6 -6 -6 -7 -7 -7 -7 -7 -7 -8
-7 -7 -8 -9 -9 -8 -7 -6 -8 -7 -8 -8 -7 -7 -7 -8 -7 -7 -7 -7 -6 -6 -6 -7 -7 -7 -7 -7 -7 -6 -6 -6 -6 -6 -6 -6 -6 -6 -6 -6 -6 -7 -7 -7 -7 -7 -7 -8 -8
-7 -8 -8 -9 -8 -8 -7 -7 -7 -7 -7 -8 -7 -7 -8 -7 -7 -7 -7 -7 -6 -6 -7 -7 -7 -7 -7 -7 -7 -7 -7 -6 -6 -6 -7 -6 -6 -6 -6 -7 -7 -7 -8 -8 -8 -8 -8 -8 -8
-8 -8 -9 -8 -7 -7 -7 -7 -7 -7 -7 -8 -8 -8 -8 -8 -7 -7 -7 -7 -7 -7 -7 -7 -7 -7 -7 -7 -8 -7 -7 -7 -7 -7 -7 -7 -7 -7 -7 -7 -7 -8 -8 -8 -8 -8 -8 -8 -9
-8 -8 -9 -9 -7 -6 -6 -7 -6 -7 -8 -8 -8 -8 -8 -7 -8 -7 -7 -7 -7 -7 -7 -7 -7 -7 -8 -8 -8 -8 -8 -8 -7 -7 -7 -7 -7 -7 -7 -7 -8 -8 -8 -8 -8 -8 -8 -8 -9
-7 -8 -9 -10 -6 -6 -7 -8 -7 -7 -8 -8 -8 -7 -7 -8 -8 -7 -7 -7 -7 -7 -7 -7 -7 -7 -8 -8 -8 -8 -8 -8 -8 -7 -7 -7 -7 -7 -7 -8 -8 -8 -8 -8 -8 -9 -9 -9 -9
-7 -8 -8 -9 -9 -6 -8 -8 -8 -8 -8 -8 -7 -7 -7 -8 -7 -7 -7 -8 -8 -8 -8 -8 -8 -8 -8 -8 -8 -9 -8 -8 -8 -7 -8 -7 -7 -7 -8 -8 -8 -8 -9 -8 -8 -9 -9 -9 -9
-6 -8 -10 -7 -7 -8 -8 -9 -8 -8 -8 -8 -8 -8 -8 -7 -8 -8 -8 -8 -8 -8 -8 -8 -8 -8 -8 -8 -8 -8 -8 -8 -8 -8 -8 -8 -8 -8 -8 -8 -8 -9 -9 -9 -9 -9 -9 -8 -9
-6 -9 -9 -7 -7 -7 -9 -9 -9 -8 -8 -8 -8 -8 -8 -8 -8 -8 -9 -8 -8 -8 -9 -9 -8 -8 -8 -8 -8 -8 -9 -8 -8 -8 -8 -8 -8 -8 -9 -9 -9 -9 -9 -9 -9 -9 -9 -9 -9
-7 -9 -8 -7 -6 -7 -9 -9 -9 -8 -8 -9 -8 -8 -8 -9 -9 -9 -9 -9 -9 -9 -10 -9 -9 -8 -9 -8 -8 -8 -8 -8 -8 -8 -9 -9 -9 -9 -9 -9 -9 -9 -10 -9 -9 -10 -10 -10 -9
-8 -9 -8 -7 -7 -7 -9 -10 -9 -9 -8 -8 -8 -8 -9 -9 -9 -9 -9 -10 -10 -9 -10 -10 -10 -9 -9 -9 -9 -9 -9 -9 -9 -9 -9 -9 -9 -9 -9 -10 -9 -9 -9 -9 -10 -10 -10 -10 -10
-8 -9 -7 -6 -6 -6 -7 -9 -9 -8 -8 -8 -9 -8 -8 -8 -9 -10 -9 -10 -10 -10 -10 -10 -9 -9 -9 -10 -9 -9 -9 -9 -9 -9 -9 -9 -9 -9 -9 -9 -9 -10 -10 -10 -10 -10 -10 -10 -10
-8 -8 -7 -5 -5 -6 -6 -9 -8 -8 -8 -9 -9 -8 -8 -9 -9 -10 -10 -10 -10 -10 -10 -10 -10 -10 -10 -10 -11 -11 -11 -10 -10 -10 -10 -9 -9 -9 -9 -9 -9 -9 -9 -10 -10 -10 -10 -10 -10
-8 -7 -5 -4 -5 -6 -7 -8 -9 -9 -9 -9 -8 -9 -9 -9 -10 -10 -10 -10 -10 -10 -10 -11 -11 -11 -11 -11 -11 -11 -11 -11 -11 -11 -10 -10 -10 -10 -10 -10 -10 -10 -10 -10 -10 -10 -10 -10 -10
-7 -6 -6 -5 -5 -6 -7 -7 -8 -9 -10 -9 -9 -9 -9 -10 -10 -10 -10 -10 -11 -10 -11 -11 -11 -11 -11 -11 -11 -11 -11 -11 -11 -11 -10 -11 -11 -11 -11 -11 -10 -10 -10 -11 -11 -11 -11 -10 -10
-7 -6 -6 -6 -5 -6 -6 -7 -8 -9 -9 -10 -10 -10 -10 -10 -10 -10 -10 -10 -11 -11 -11 -11 -11 -11 -11 -11 -11 -11 -11 -11 -11 -11 -10 -11 -11 -11 -11 -11 -11 -11 -11 -11 -11 -11 -10 -10 -10
-7 -7 -7 -7 -7 -8 -8 -8 -9 -9 -9 -10 -10 -11 -11 -11 -10 -10 -10 -10 -11 -11 -11 -11 -11 -11 -11 -11 -11 -11 -11 -11 -12 -11 -11 -10 -11 -11 -11 -11 -11 -11 -11 -11 -11 -11 -10 -10 -10
-8 -8 -8 -9 -10 -10 -8 -7 -8 -7 -8 -10 -11 -10 -11 -11 -11 -10 -10 -10 -10 -10 -11 -11 -11 -11 -11 -11 -11 -11 -11 -11 -11 -11 -11 -10 -11 -11 -11 -11 -11 -11 -10 -10 -10 -10 -10 -10 -10
-9 -9 -9 -9 -11 -11 -10 -9 -7 -7 -7 -9 -9 -9 -10 -10 -11 -11 -11 -11 -11 -11 -11 -11 -11 -11 -11 -11 -11 -11 -12 -12 -12 -11 -11 -11 -11 -11 -11 -11 -11 -11 -11 -11 -11 -11 -11 -11 -11
-9 -9 -9 -10 -11 -11 -11 -11 -10 -9 -8 -9 -9 -10 -10 -10 -10 -10 -10 -11 -11 -11 -11 -11 -11 -11 -11 -12 -12 -12 -12 -12 -12 -12 -11 -11 -11 -11 -11 -11 -11 -11 -11 -11 -11 -11 -11 -11 -11
-10 -11 -11 -12 -11 -11 -12 -11 -11 -10 -10 -8 -10 -11 -11 -10 -10 -10 -10 -10 -11 -11 -11 -11 -12 -12 -11 -12 -12 -12 -12 -12 -12 -11 -11 -11 -11 -11 -11 -11 -11 -11 -11 -11 -11 -11 -11 -11 -11
-10 -11 -11 -12 -12 -12 -12 -12 -11 -11 -10 -10 -10 -10 -10 -11 -11 -11 -11 -10 -11 -11 -11 -12 -12 -12 -12 -12 -12 -12 -12 -12 -12 -12 -12 -12 -12 -12 -12 -11 -11 -11 -11 -11 -11 -11 -11 -11 -11
-12 -12 -12 -12 -12 -12 -12 -12 -12 -11 -11 -11 -11 -11 -10 -11 -12 -11 -12 -11 -11 -11 -11 -11 -12 -12 -12 -12 -12 -12 -12 -12 -12 -12 -12 -12 -12 -12 -12 -12 -12 -12 -12 -12 -11 -11 -11 -11 -11
-13 -12 -12 -12 -12 -12 -12 -12 -12 -12 -11 -11 -11 -11 -12 -11 -11 -11 -12 -12 -12 -12 -12 -12 -12 -12 -12 -12 -12 -12 -12 -12 -12 -12 -12 -12 -12 -12 -12 -12 -12 -11 -11 -11 -11 -11 -11 -11 -11
-12 -13 -13 -13 -12 -12 -12 -12 -12 -12 -12 -11 -12 -11 -11 -12 -12 -12 -13 -12 -13 -13 -12 -13 -13 -13 -13 -13 -13 -13 -13 -13 -13 -13 -13 -13 -13 -12 -12 -12 -12 -12 -12 -12 -12 -12 -12 -12 -11
-13 -13 -13 -13 -13 -13 -12 -13 -12 -12 -12 -12 -12 -12 -12 -12 -12 -13 -13 -12 -12 -13 -13 -13 -13 -13 -13 -13 -13 -13 -14 -14 -14 -14 -13 -13 -13 -13 -13 -13 -12 -13 -13 -13 -13 -13 -12 -12 -12
-13 -12 -12 -13 -14 -13 -13 -13 -12 -12 -13 -13 -13 -13 -13 -13 -13 -12 -11 -11 -12 -13 -12 -12 -14 -14 -14 -13 -14 -14 -14 -14 -14 -14 -14 -13 -13 -13 -13 -13 -13 -13 -13 -13 -13 -13 -13 -13 -13
-13 -12 -13 -12 -14 -14 -13 -13 -13 -12 -12 -12 -12 -12 -13 -13 -13 -12 -12 -12 -12 -12 -12 -13 -13 -14 -14 -14 -15 -14 -14 -14 -14 -14 -14 -14 -14 -14 -14 -14 -14 -14 -14 -14 -14 -14 -13 -13 -13
-13 -13 -13 -14 -14 -14 -14 -13 -13 -12 -12 -12 -12 -13 -13 -13 -13 -12 -12 -13 -14 -14 -13 -14 -14 -15 -14 -15 -15 -15 -15 -14 -14 -14 -14 -14 -14 -14 -14 -14 -14 -14 -14 -14 -14 -14 -14 -14 -14
Height
5916 5916 5915 5916 5919 5916 5917 5918 5915 5916 5921 5920 5922 5922 5925 5924 5923 5923 5922 5922 5922 5923 5921 5920 5919 5919 5919 5918 5916 5915 5914 5912 5911 5910 5908 5907 5905 5904 5903 5901 5900 5899 5897 5895 5894 5893 5891 5891 5888
5916 5917 5916 5915 5919 5918 5916 5915 5918 5918 5919 5920 5923 5925 5926 5923 5922 5922 5923 5922 5923 5921 5921 5921 5920 5919 5918 5917 5916 5915 5914 5913 5911 5911 5909 5908 5907 5905 5904 5903 5901 5899 5898 5896 5895 5893 5892 5892 5890
5917 5918 5919 5918 5916 5913 5913 5910 5918 5923 5919 5921 5922 5925 5926 5924 5923 5923 5923 5923 5922 5921 5921 5920 5919 5919 5917 5916 5916 5915 5914 5913 5912 5911 5910 5908 5908 5906 5905 5905 5902 5900 5899 5898 5897 5894 5893 5893 5894
5916 5917 5919 5917 5912 5911 5913 5911 5914 5916 5919 5922 5924 5926 5925 5926 5923 5923 5923 5922 5921 5921 5921 5920 5919 5918 5917 5916 5915 5914 5914 5913 5912 5911 5910 5909 5908 5906 5906 5905 5904 5901 5900 5899 5898 5894 5895 5895 5896
5915 5917 5916 5910 5911 5910 5908 5912 5911 5912 5918 5922 5923 5924 5923 5925 5922 5922 5922 5921 5920 5920 5919 5919 5919 5918 5916 5914 5914 5913 5913 5912 5912 5910 5910 5909 5908 5907 5906 5905 5904 5902 5901 5900 5898 5895 5895 5895 5896
5913 5916 5915 5907 5908 5905 5908 5909 5915 5914 5918 5917 5916 5918 5919 5923 5920 5922 5921 5920 5919 5918 5918 5918 5918 5917 5915 5914 5913 5912 5911 5911 5910 5910 5909 5908 5908 5907 5906 5905 5903 5902 5901 5900 5898 5895 5895 5895 5895
5911 5913 5914 5910 5906 5907 5909 5912 5916 5920 5920 5919 5916 5915 5922 5921 5921 5920 5920 5919 5918 5918 5918 5918 5917 5915 5914 5913 5911 5910 5909 5909 5908 5908 5909 5908 5907 5906 5907 5905 5904 5901 5900 5899 5897 5896 5895 5895 5894
5908 5912 5914 5910 5901 5905 5907 5913 5918 5920 5920 5918 5918 5915 5920 5920 5919 5919 5918 5918 5919 5918 5917 5916 5915 5913 5913 5912 5910 5908 5907 5907 5906 5906 5907 5907 5907 5906 5906 5906 5904 5902 5901 5899 5898 5897 5896 5895 5893
5907 5911 5908 5904 5903 5905 5908 5913 5918 5918 5917 5913 5913 5918 5918 5920 5919 5918 5917 5916 5916 5915 5914 5914 5913 5911 5911 5910 5908 5907 5906 5906 5905 5905 5905 5905 5906 5905 5904 5905 5903 5902 5901 5899 5897 5896 5895 5895 5893
5905 5907 5901 5903 5900 5901 5905 5909 5912 5915 5915 5916 5914 5913 5917 5917 5917 5916 5915 5915 5914 5913 5912 5911 5910 5910 5908 5908 5907 5906 5905 5904 5904 5903 5903 5904 5903 5903 5903 5903 5902 5901 5900 5898 5896 5895 5895 5895 5892
5905 5901 5894 5901 5902 5902 5900 5904 5908 5909 5912 5914 5914 5912 5912 5916 5917 5917 5915 5913 5912 5909 5909 5909 5909 5907 5906 5906 5905 5904 5903 5903 5902 5901 5901 5902 5901 5901 5902 5901 5900 5899 5898 5897 5896 5894 5893 5893 5891
5902 5894 5890 5897 5899 5898 5899 5901 5903 5905 5908 5911 5912 5913 5914 5913 5914 5913 5912 5912 5911 5911 5910 5909 5906 5902 5905 5905 5904 5903 5902 5902 5900 5900 5901 5900 5900 5899 5898 5897 5897 5897 5896 5894 5893 5893 5891 5891 5890
5899 5889 5887 5892 5895 5896 5897 5899 5901 5903 5905 5904 5905 5908 5909 5909 5908 5908 5908 5909 5908 5907 5908 5908 5908 5907 5904 5903 5902 5902 5901 5900 5900 5899 5898 5897 5897 5897 5897 5897 5897 5896 5894 5893 5892 5891 5889 5888 5887
5894 5882 5883 5887 5890 5892 5893 5892 5895 5898 5899 5900 5899 5901 5903 5903 5904 5906 5905 5905 5905 5904 5902 5902 5902 5903 5903 5902 5901 5900 5899 5898 5898 5897 5897 5897 5897 5897 5896 5895 5894 5893 5893 5892 5890 5889 5887 5886 5885
5886 5882 5883 5885 5887 5888 5888 5889 5892 5893 5893 5894 5895 5895 5897 5899 5902 5904 5905 5906 5905 5904 5901 5900 5899 5898 5898 5898 5898 5897 5896 5896 5897 5897 5896 5896 5895 5894 5893 5892 5890 5889 5889 5888 5887 5886 5884 5882 5881
5883 5879 5879 5880 5884 5884 5885 5888 5891 5892 5891 5890 5889 5892 5894 5895 5897 5899 5900 5901 5901 5901 5899 5897 5896 5895 5895 5895 5894 5892 5892 5892 5891 5891 5891 5890 5890 5890 5890 5888 5887 5886 5885 5884 5882 5881 5880 5879 5879
5879 5877 5877 5878 5882 5883 5881 5883 5888 5889 5888 5887 5886 5887 5889 5891 5892 5893 5893 5893 5894 5895 5895 5894 5893 5891 5891 5891 5890 5889 5888 5887 5886 5886 5885 5885 5885 5885 5885 5884 5882 5880 5879 5878 5877 5875 5874 5873 5873
5878 5876 5875 5874 5878 5879 5876 5876 5881 5884 5886 5885 5884 5884 5884 5884 5885 5885 5885 5886 5887 5888 5889 5890 5889 5887 5886 5885 5885 5885 5884 5883 5881 5880 5878 5879 5879 5879 5878 5878 5877 5874 5873 5871 5870 5868 5866 5866 5866
5871 5872 5871 5870 5874 5869 5868 5868 5871 5876 5879 5882 5884 5884 5881 5880 5879 5878 5877 5878 5879 5881 5882 5882 5882 5881 5880 5880 5879 5879 5878 5877 5876 5874 5872 5871 5871 5870 5869 5868 5867 5866 5865 5864 5863 5861 5859 5857 5857
5862 5864 5865 5865 5862 5862 5862 5861 5862 5866 5868 5872 5875 5876 5875 5874 5872 5873 5873 5873 5873 5874 5874 5874 5874 5874 5874 5873 5873 5872 5871 5870 5868 5866 5865 5864 5863 5862 5860 5859 5858 5858 5856 5855 5853 5853 5851 5849 5847
5855 5856 5859 5858 5857 5856 5857 5854 5856 5858 5858 5859 5862 5864 5864 5865 5865 5863 5864 5864 5864 5865 5866 5866 5866 5865 5865 5865 5865 5864 5863 5862 5860 5859 5857 5855 5853 5852 5851 5850 5848 5847 5846 5844 5843 5842 5841 5839 5837
5847 5851 5852 5850 5849 5848 5851 5849 5850 5850 5849 5851 5853 5854 5854 5856 5856 5854 5854 5853 5854 5855 5856 5857 5857 5857 5856 5856 5856 5855 5854 5852 5850 5848 5848 5847 5845 5843 5841 5840 5838 5836 5834 5833 5831 5829 5827 5825 5824
5840 5844 5845 5845 5842 5841 5842 5842 5845 5842 5842 5845 5847 5845 5846 5846 5847 5846 5846 5845 5845 5845 5846 5846 5847 5847 5846 5846 5846 5846 5844 5842 5841 5840 5838 5836 5834 5833 5831 5829 5826 5824 5821 5819 5817 5815 5812 5810 5808
5833 5834 5837 5836 5835 5829 5835 5836 5834 5835 5840 5838 5839 5838 5838 5839 5838 5839 5840 5839 5838 5836 5836 5836 5836 5837 5837 5838 5838 5836 5834 5834 5832 5830 5828 5826 5823 5821 5819 5817 5814 5812 5810 5807 5805 5802 5800 5797 5795
5824 5826 5826 5826 5823 5820 5828 5826 5826 5827 5827 5830 5830 5830 5831 5832 5832 5833 5834 5833 5830 5829 5828 5828 5827 5827 5828 5828 5828 5827 5826 5823 5821 5819 5816 5815 5813 5810 5808 5805 5802 5800 5797 5795 5792 5789 5787 5785 5783
5818 5819 5817 5817 5817 5819 5819 5814 5813 5817 5818 5819 5819 5821 5822 5826 5827 5827 5826 5823 5823 5821 5820 5820 5819 5819 5820 5818 5818 5816 5815 5813 5810 5808 5806 5803 5801 5798 5794 5791 5788 5786 5784 5781 5778 5775 5773 5770 5768
5808 5806 5812 5811 5810 5809 5808 5807 5807 5809 5811 5812 5813 5813 5815 5816 5816 5816 5813 5812 5811 5811 5811 5811 5810 5810 5810 5807 5807 5805 5804 5801 5800 5797 5795 5791 5787 5784 5781 5778 5775 5773 5771 5768 5764 5760 5757 5754 5752
5792 5796 5798 5794 5796 5798 5796 5798 5797 5798 5801 5803 5804 5805 5806 5805 5805 5803 5801 5801 5800 5799 5798 5799 5799 5798 5798 5796 5794 5793 5791 5790 5788 5784 5781 5778 5775 5772 5768 5765 5762 5759 5756 5753 5750 5745 5742 5739 5736
5785 5783 5786 5788 5786 5785 5785 5785 5789 5790 5790 5792 5792 5792 5793 5793 5793 5793 5790 5789 5790 5787 5785 5787 5786 5784 5786 5786 5783 5782 5780 5778 5775 5770 5767 5764 5761 5757 5754 5751 5749 5745 5742 5739 5735 5729 5726 5723 5720
5776 5776 5777 5776 5776 5773 5771 5775 5777 5779 5780 5781 5781 5780 5780 5782 5781 5781 5774 5774 5775 5777 5776 5776 5774 5772 5772 5772 5771 5769 5765 5763 5760 5756 5753 5749 5746 5742 5738 5734 5732 5729 5725 5721 5718 5712 5708 5705 5702
Wind_Speed
14 10 2 3 19 18 12 22 18 16 21 13 10 18 15 15 6 10 8 6 6 6 7 8 9 10 11 11 10 10 10 10 7 6 6 6 5 4 5 6 6 5 4 4 4 5 6 9 11
15 12 10 14 12 8 2 6 7 15 12 8 9 10 6 12 9 8 8 5 5 6 8 9 9 9 10 11 11 10 10 10 7 6 7 6 4 4 5 5 5 4 4 4 5 6 7 9 9
19 9 14 9 4 4 3 5 7 5 12 3 3 3 3 7 8 6 4 5 6 8 9 8 8 9 10 11 11 11 10 11 8 6 6 5 5 4 5 4 4 3 4 3 5 6 7 8 9
18 11 12 10 7 4 5 7 14 15 20 17 14 8 8 5 7 6 4 4 6 9 11 11 11 11 12 12 13 13 12 11 10 6 6 6 4 4 4 4 4 3 3 3 4 5 7 9 10
19 14 17 10 4 2 4 8 11 15 24 22 19 23 10 3 5 8 5 5 6 8 10 11 13 14 13 13 14 13 12 12 11 7 5 4 3 3 3 4 4 3 2 2 4 6 8 8 8
25 19 18 6 4 7 8 4 16 6 26 27 25 4 9 7 6 6 3 5 6 9 12 12 12 14 14 13 12 12 11 10 10 8 4 2 2 2 2 2 3 3 2 3 5 7 7 8 7
28 22 20 4 9 9 8 8 4 20 24 22 18 10 4 5 7 2 5 9 10 10 11 11 11 11 11 10 9 10 10 9 8 6 4 2 1 0 1 1 3 3 4 4 4 4 6 6 7
30 20 18 12 18 14 15 12 18 18 20 27 21 8 11 10 3 7 9 8 7 8 8 9 8 9 9 8 7 7 9 9 7 5 4 3 3 1 2 3 4 4 4 5 6 5 6 7 7
28 19 18 25 24 15 16 13 17 18 21 30 21 7 4 7 1 6 11 12 10 9 7 8 9 8 7 7 6 7 8 8 7 5 3 4 3 3 2 4 5 6 4 3 5 8 8 8 10
28 20 31 29 24 17 13 14 16 9 17 14 8 3 3 3 4 8 13 14 10 7 7 6 9 9 7 6 5 6 6 6 6 4 3 5 4 3 3 3 5 7 7 6 5 7 9 10 12
28 26 39 33 26 19 17 18 19 17 9 7 3 1 5 2 5 8 12 11 8 8 5 4 5 7 6 6 7 7 5 5 4 3 3 4 4 4 4 4 5 6 7 7 6 8 10 11 13
35 36 40 34 27 24 21 20 18 17 17 13 10 11 9 8 5 9 13 10 6 4 3 3 6 9 7 7 8 6 6 5 4 2 1 3 3 3 6 7 8 9 9 8 9 9 11 11 13
39 41 42 35 35 33 26 23 22 20 18 18 18 21 18 15 11 8 12 12 10 7 2 2 8 7 5 7 8 7 6 6 6 4 5 6 6 8 10 11 11 11 11 11 11 13 13 14 14
42 44 41 33 31 34 32 28 25 23 23 23 23 19 17 17 15 11 12 13 15 11 9 5 3 2 1 3 2 3 4 4 3 6 8 8 10 12 14 15 16 15 15 15 14 15 16 18 18
40 41 33 30 29 34 31 30 25 23 24 23 22 22 16 14 14 16 13 11 11 14 12 8 7 7 4 4 5 5 6 7 7 7 8 10 12 13 14 14 15 15 15 16 16 17 16 16 16
35 38 37 32 29 33 31 28 24 23 26 24 24 20 21 19 17 19 18 14 13 14 16 13 13 13 13 11 11 11 12 13 13 14 11 14 15 17 17 18 20 19 20 19 19 19 20 20 18
33 36 37 35 32 30 29 30 27 24 18 16 16 18 21 21 22 24 23 22 18 17 18 17 15 17 18 17 16 17 17 17 19 20 21 20 21 21 21 20 21 20 23 22 24 24 26 26 25
27 35 37 38 34 30 31 33 26 22 16 13 15 17 22 25 27 28 29 28 27 24 24 23 21 21 21 23 24 22 22 25 27 27 28 27 28 29 25 26 26 27 29 28 27 29 31 30 26
25 27 30 31 24 30 34 33 29 23 19 19 22 19 18 31 32 33 34 34 33 31 30 29 28 28 27 27 28 30 28 28 30 31 33 32 32 32 30 30 31 33 33 33 35 35 35 37 36
27 29 31 35 27 30 33 34 33 30 30 28 23 22 22 23 33 41 39 38 38 37 35 33 34 33 32 33 35 35 35 36 36 38 39 39 38 37 37 35 36 36 36 36 36 36 37 40 40
28 31 32 33 29 32 31 36 35 33 32 37 34 33 33 29 26 32 38 45 44 42 40 38 38 38 39 38 39 42 40 40 42 43 43 43 43 43 44 44 44 44 44 43 43 44 44 44 46
32 28 31 29 32 33 31 36 36 37 41 37 39 40 38 32 29 29 33 37 44 47 45 44 43 44 45 45 44 45 45 45 45 39 37 40 42 44 46 48 49 50 50 50 50 50 51 52 52
31 21 30 32 33 36 38 41 42 44 45 42 36 39 32 28 24 22 25 27 32 40 45 47 47 49 49 50 46 46 45 39 37 39 41 43 45 47 49 52 54 55 56 56 56 56 57 57 55
26 25 31 36 37 44 44 46 48 50 45 46 34 35 33 28 24 19 17 22 27 30 34 39 46 49 48 46 45 40 37 39 43 45 47 48 50 52 53 54 54 54 54 54 54 54 55 56 57
32 34 39 43 46 50 43 45 49 47 44 34 32 30 30 30 29 23 21 27 24 28 29 29 30 32 34 35 36 39 42 45 47 47 47 48 50 52 52 53 54 54 54 54 55 56 56 56 56
34 32 38 41 40 44 44 45 46 44 41 37 42 39 34 32 28 27 28 32 32 29 29 30 32 33 36 40 42 43 44 45 46 47 47 48 51 52 53 53 53 54 54 55 56 58 58 59 59
32 43 35 39 39 39 46 46 47 42 43 46 47 46 41 38 33 33 36 38 38 40 34 37 39 41 42 44 44 45 46 46 47 47 52 49 49 50 51 52 53 53 53 55 56 58 59 60 60
31 39 42 49 42 43 50 46 47 49 46 43 42 41 38 35 37 44 40 43 45 46 47 44 42 43 44 46 49 50 50 47 48 51 51 51 50 51 52 53 55 56 56 57 58 60 61 62 63
40 38 37 45 44 47 49 46 44 46 55 51 50 49 39 33 38 43 45 44 53 47 48 43 48 47 43 41 40 40 44 48 50 52 52 52 53 53 54 54 55 56 58 59 60 62 62 62 63
46 43 42 45 51 52 55 57 50 48 46 49 53 49 51 34 43 36 36 31 33 32 38 38 41 38 40 42 43 46 49 53 54 54 53 54 55 55 56 58 58 59 59 59 59 60 61 61 63
Wind_Direction
142 133 117 100 63 167 113 178 165 181 185 208 276 318 297 319 318 331 350 323 331 338 2 2 3 358 354 356 355 3 12 12 10 353 344 349 5 9 32 45 55 55 49 52 38 52 52 56 55
143 126 98 75 67 83 99 118 179 193 210 219 231 269 308 332 321 312 335 337 323 344 349 354 356 345 339 343 345 353 4 8 4 348 338 339 351 19 47 50 52 48 56 45 38 48 45 49 49
154 127 107 82 104 19 40 104 48 189 352 314 237 282 29 342 310 288 283 303 325 349 345 344 341 331 330 336 340 340 353 2 359 342 329 337 349 18 52 55 54 60 63 34 28 26 17 32 41
169 143 127 130 164 89 17 277 322 333 351 322 316 325 126 25 320 305 323 347 346 335 327 336 328 325 320 325 331 339 347 355 350 330 327 332 342 17 31 43 34 60 75 55 17 11 2 16 35
176 142 138 212 124 83 175 312 318 328 330 319 285 298 145 166 278 297 318 321 330 324 328 327 321 321 320 325 328 333 339 342 342 327 318 331 334 6 22 21 14 26 58 38 348 346 5 17 28
179 152 129 230 106 340 97 335 293 321 333 327 317 271 136 152 259 299 348 8 354 340 330 321 317 314 318 327 330 332 335 341 340 321 298 309 334 351 30 22 354 358 357 348 336 345 359 13 16
189 168 157 69 200 147 257 290 299 293 307 314 299 93 119 171 256 342 27 7 359 345 330 323 322 324 328 333 334 331 329 336 340 327 293 282 223 198 319 355 339 339 331 339 343 358 350 355 352
195 174 175 196 235 201 232 245 245 274 289 300 303 75 112 134 123 16 14 4 328 325 329 327 318 322 321 326 323 318 321 328 334 335 296 262 240 255 293 329 1 358 339 336 333 329 329 340 346
204 176 199 216 224 241 258 276 263 285 285 317 284 294 149 153 137 355 349 342 332 313 293 286 305 312 316 303 313 320 327 337 330 330 307 265 232 258 293 323 359 11 359 343 328 327 327 332 331
199 188 217 212 234 255 249 270 277 281 302 323 44 89 174 255 323 352 346 338 330 301 281 282 288 287 285 298 310 316 327 332 323 320 282 271 252 255 306 304 336 352 352 355 328 317 315 327 319
186 205 228 221 241 263 261 265 278 286 311 264 31 138 291 292 306 324 341 346 351 332 339 323 295 281 312 313 317 310 305 311 316 311 282 282 290 290 267 283 304 320 321 324 327 317 309 313 309
186 214 235 228 239 251 255 263 276 285 286 262 269 261 273 254 268 315 337 342 3 7 248 335 354 327 328 312 308 296 309 304 308 327 320 271 282 275 275 282 276 266 265 279 290 290 301 302 301
192 220 233 240 241 250 263 272 272 278 293 293 282 248 269 266 286 303 320 328 318 333 15 203 223 267 300 326 323 312 304 283 288 268 254 256 260 258 256 257 264 273 276 281 284 291 293 294 294
194 224 237 252 255 256 266 275 283 291 293 297 295 281 260 266 266 277 298 316 313 303 306 318 343 326 296 15 17 330 308 306 302 292 288 282 270 271 272 274 274 275 276 274 273 271 271 274 282
208 229 251 258 258 258 270 280 288 296 302 295 292 282 273 266 263 272 265 276 300 290 287 303 313 322 336 347 302 291 282 270 272 287 297 299 300 297 295 293 290 291 290 286 281 278 277 281 292
219 236 245 255 258 259 266 272 283 299 297 296 287 271 268 275 273 270 265 267 275 294 288 297 312 318 319 315 299 291 303 306 301 297 298 320 309 312 305 304 289 289 287 282 282 278 273 274 285
231 241 248 256 261 264 276 286 288 284 289 308 290 262 262 270 270 269 269 274 277 281 284 278 285 294 300 304 306 306 302 302 301 299 298 301 304 314 314 311 304 307 300 303 283 282 281 280 281
233 236 248 254 259 274 265 266 268 265 264 303 316 279 264 264 265 267 272 275 277 279 276 275 276 283 289 295 299 297 299 301 304 301 295 299 298 304 298 300 295 291 289 291 290 287 286 285 287
237 240 246 250 241 247 256 260 268 261 270 281 289 271 279 261 261 265 264 266 269 273 274 266 273 277 282 285 288 293 290 292 295 293 294 292 294 296 296 293 293 292 288 283 284 286 288 291 288
233 238 241 237 233 252 262 270 269 271 272 282 267 261 265 269 259 250 254 260 263 267 270 268 268 271 275 279 279 282 288 287 287 292 293 291 291 290 291 291 291 290 289 288 285 282 284 285 287
237 239 241 242 243 257 256 264 272 279 278 280 280 286 287 288 278 263 256 254 256 260 264 265 267 269 272 276 279 278 283 285 287 287 288 286 288 288 289 289 289 289 289 288 285 283 283 283 284
227 232 233 236 241 253 262 269 264 268 271 277 286 293 295 287 276 270 260 256 252 254 259 263 265 266 270 275 279 278 278 286 285 282 283 284 286 286 286 286 286 287 288 288 286 286 286 286 285
235 224 221 237 255 263 259 262 261 261 269 276 286 282 282 268 266 265 269 268 260 255 255 258 260 263 268 273 274 277 280 279 280 284 285 285 284 285 286 285 286 287 287 288 288 288 288 287 286
227 224 231 239 253 256 254 258 260 260 266 274 278 281 276 262 258 262 277 279 269 264 263 261 260 263 266 271 273 274 273 275 279 280 281 281 282 283 283 284 284 285 285 285 285 285 284 285 285
222 225 232 235 243 252 259 263 264 263 266 270 273 273 277 264 263 269 282 286 273 267 264 263 264 265 266 266 268 270 273 275 278 280 281 283 283 283 283 283 284 284 284 284 283 283 283 282 282
229 229 238 248 251 249 247 255 261 263 268 272 274 272 278 277 279 278 275 269 265 270 265 264 263 262 263 266 270 272 273 276 278 280 283 286 287 287 287 287 286 285 285 284 283 282 281 281 281
241 239 237 250 253 249 249 252 257 257 259 263 268 280 282 280 276 268 258 258 261 265 257 258 260 263 265 268 269 270 272 272 276 281 285 287 289 288 287 286 285 284 283 282 282 281 282 281 281
256 242 238 239 244 246 247 247 252 254 255 263 270 268 276 279 267 269 271 265 257 261 264 255 255 258 258 259 259 262 266 277 284 286 288 288 288 287 286 285 284 284 283 283 283 282 282 282 282
235 251 237 241 242 243 242 245 246 251 250 257 269 269 270 279 269 263 264 267 264 260 270 264 256 257 265 277 280 285 283 285 289 288 287 288 287 286 285 284 283 282 282 282 281 281 280 280 280
247 244 245 229 236 241 247 248 249 247 250 257 261 268 270 272 276 268 259 282 288 294 265 288 300 297 289 283 278 283 284 287 289 289 288 287 286 286 285 285 285 284 283 283 282 281 281 281 281